VIZARD-METEO (RS38S)

Last updated on Tue Aug 25 2026 00:03:14 GMT+0000 (Coordinated Universal Time)

1 57189U 23091Z 26236.57021520 .00015987 00000+0 42939-3 0 9995 2 57189 97.5044 307.5054 0007209 172.8956 187.2392 15.37987098175193
UTC large
Height (km)
Speed (km/s)
/
Latitude / Longitude
Inclination (degrees)
Orbital Period (minutes)
Azimuth
Elevation
Range (km)
Doppler Factor

Next 0 passes for location: London (51.5072 / 0.1276)

No passes found over London.
VIZARD-METEO (RS38S)